Location: Bessat
(45.8735°N, 1.9924°E)
Time: 20:32:36
(UTC+00:00)

Cosmos 1782 - Pass Details

Date: 11 May 2021
Orbit: 537 x 550 km, 82.5° (Epoch: 20 June)

Event Time Altitude Azimuth Distance (km) Brightness Sun altitude
Exits shadow 20:23:03 - 178° (S) 2,161 5.5 -11.0°
Reaches altitude 10° 20:23:54 10° 177° (S) 1,815 5.1 -11.1°
Maximum altitude 20:27:51 64° 96° (E) 610 2.8 -11.6°
Drops below altitude 10° 20:31:49 10° 15° (NNE) 1,823 5.8 -12.1°
Sets 20:34:00 0° 12° (NNE) 2,719 6.8 -12.4°
